North Platte, NE

6:32 PM CDT on June 25, 2017 (GMT -0500)
North Platte Regional-Bird

Weather History for KLBF - April, 2013

Change the Weather History Date:

Sunday, April 21, 2013

  Actual Average Record
Temperature  
Mean Temperature 50 °F 49 °F  
Max Temperature 66 °F 64 °F 94 °F (1980)
Min Temperature 33 °F 35 °F 20 °F (1907)
Degree Days  
Heating Degree Days 15 16  
Month to date heating degree days 513 399  
Since 1 July heating degree days 6346 6264  
Cooling Degree Days 0 0  
Month to date cooling degree days 0 0  
Year to date cooling degree days 0 0  
Moisture  
Dew Point 36 °F    
Average Humidity 64    
Maximum Humidity 96    
Minimum Humidity 31    
Precipitation  
Precipitation T in 0.09 in 1.91 in (2005)
Month to date precipitation 1.25 1.47  
Year to date precipitation 3.02 3.36  
Snow  
Snow 0.00 in 0.00 in 0.40 in (1920)
Month to date snowfall 6.7 2.7  
Since 1 July snowfall 29.3 28.0  
Snow Depth 0.00 in    
Sea Level Pressure  
Sea Level Pressure 30.02 in    
Wind  
Wind Speed 8 mph (ENE)    
Max Wind Speed 25 mph    
Max Gust Speed 31 mph    
Visibility 10 miles    
Events Rain    
T = Trace of Precipitation, MM = Missing Value Source: NWS Daily Summary

Daily Weather History Graph

Daily Weather History Graph

Search for Another Location

Airport or City:

Trip Planner

Search our weather history database for the weather conditions in past years. The results will help you decide how hot, cold, wet, or windy it might be!

Date:

Astronomy

Apr. 21, 2013 Rise Set
Actual Time 6:53 AM CDT 8:29 PM CDT
Civil Twilight 6:24 AM CDT 8:58 PM CDT
Nautical Twilight 5:49 AM CDT 9:33 PM CDT
Astronomical Twilight 5:12 AM CDT 10:11 PM CDT
Moon 4:14 PM CDT (4/21) 4:19 AM CDT (4/21)
Length of Visible Light 14h 33m
Length of Day
13h 35m
Waxing Gibbous, 80% of the Moon is Illuminated
Apr 21
Waxing Gibbous
Apr 25
Full
May 2
Last Quarter
May 9
New
May 17
First Quarter

Hourly Weather History & Observations

Time (CDT) Temp. Windchill Dew Point Humidity Pressure Visibility Wind Dir Wind Speed Gust Speed Precip Events Conditions
12:53 AM 36.0 °F 29.0 °F 30.9 °F 82% 30.04 in 10.0 mi ESE 9.2 mph - N/A   Clear
1:53 AM 35.1 °F 27.4 °F 30.0 °F 82% 30.03 in 10.0 mi ESE 10.4 mph - N/A   Clear
2:53 AM 34.0 °F 28.8 °F 30.0 °F 85% 30.01 in 10.0 mi ESE 5.8 mph - N/A   Partly Cloudy
3:53 AM 35.1 °F - 30.9 °F 85% 30.05 in 10.0 mi Calm Calm - N/A   Overcast
4:53 AM 36.0 °F - 32.0 °F 86% 30.01 in 10.0 mi Calm Calm - N/A   Overcast
5:53 AM 37.0 °F 34.5 °F 33.1 °F 86% 29.99 in 9.0 mi ESE 3.5 mph - 0.00 in Rain Light Rain
6:53 AM 36.0 °F 32.1 °F 34.0 °F 93% 29.99 in 8.0 mi ESE 4.6 mph - 0.00 in   Partly Cloudy
7:53 AM 34.0 °F - 32.0 °F 92% 30.01 in 7.0 mi Calm Calm - N/A   Clear
8:53 AM 41.0 °F 38.0 °F 35.1 °F 79% 30.02 in 10.0 mi ESE 4.6 mph - N/A   Clear
9:53 AM 51.1 °F - 39.9 °F 66% 30.03 in 10.0 mi WNW 10.4 mph - N/A   Clear
10:53 AM 55.0 °F - 39.9 °F 57% 30.03 in 10.0 mi WNW 6.9 mph - N/A   Clear
11:53 AM 59.0 °F - 39.0 °F 48% 30.03 in 10.0 mi NW 6.9 mph 16.1 mph N/A   Clear
12:53 PM 62.1 °F - 39.0 °F 43% 30.01 in 10.0 mi Calm Calm - N/A   Scattered Clouds
1:53 PM 63.0 °F - 37.9 °F 40% 30.00 in 10.0 mi ENE 9.2 mph - N/A   Scattered Clouds
2:53 PM 63.0 °F - 35.1 °F 35% 30.01 in 10.0 mi Calm Calm - N/A   Mostly Cloudy
3:53 PM 64.9 °F - 33.1 °F 31% 29.98 in 10.0 mi Calm Calm - N/A   Partly Cloudy
4:53 PM 63.0 °F - 34.0 °F 34% 29.98 in 10.0 mi North 11.5 mph 20.7 mph N/A   Mostly Cloudy
5:53 PM 61.0 °F - 36.0 °F 39% 29.99 in 10.0 mi NE 12.7 mph - N/A   Mostly Cloudy
6:53 PM 57.9 °F - 37.9 °F 47% 30.03 in 10.0 mi North 13.8 mph - N/A   Partly Cloudy
7:53 PM 50.0 °F - 43.0 °F 77% 30.06 in 10.0 mi NNE 19.6 mph 27.6 mph N/A   Clear
8:53 PM 46.9 °F - 41.0 °F 80% 30.06 in 10.0 mi NE 16.1 mph 26.5 mph N/A   Clear
9:53 PM 46.0 °F 39.3 °F 41.0 °F 83% 30.06 in 10.0 mi NE 16.1 mph - N/A   Clear
10:53 PM 45.0 °F 38.9 °F 41.0 °F 86% 30.07 in 10.0 mi East 12.7 mph - N/A   Clear
11:53 PM 43.0 °F 36.4 °F 39.0 °F 86% 30.05 in 10.0 mi East 12.7 mph - N/A   Clear